Location: Aalen
(48.8330°N, 10.1000°E)
Time: 17:17:22
(UTC+02:00)

UWE-3 - Pass Details

Date: 08 April 2023
Orbit: 576 x 669 km, 97.7° (Epoch: 02 June)

Event Time Altitude Azimuth Distance (km) Brightness Sun altitude
Rises 04:06:20 0° 16° (NNE) 2,946 ? -23.5°
Reaches altitude 10° 04:08:37 10° 21° (NNE) 2,017 ? -23.3°
Maximum altitude 04:12:56 58° 100° (E) 723 ? -22.7°
Enters shadow 04:14:03 43° 153° (SSE) 864 ? -22.6°
